Powrót do katalogu

STARLINK-31164

AktywnyŁącznośćVLEO
NORAD 58733·PAYLOAD·🇺🇸 United States

Wystrzelony Jan 7, 2024 z Cape Canaveral Space Force Station

Loading…

Następne Przeloty (najbliższe 24 godziny)

TLE

ŚwieżeSource: CelesTrak SupGP

Epoka: Sep 14, 2026, 21:29 UTC

1 58733C 24005F   26257.89562500  .00036866  00000+0  13356-2 0  2579
2 58733  42.9993 230.8697 0001068 256.7859 127.3466 15.27553415    14

Śledź STARLINK-31164 w czasie rzeczywistym z AllMySat

Download on the App Store